Regional Weather Roundup
Issued by NWS

Home | Current Version | Previous Version | Text Only | Print | Product List | Glossary On
Versions: 1 2 3 4 5 6 7 8 9 10 11 12 13 14 15 16 17 18 19 20 21 22 23 24 25 26 27 28 29 30 31 32 33 34 35 36 37 38 39 40 41 42 43 44 45 46 47 48 49
000
ASUS44 KBMX 111910
RWRAL

ALABAMA REGIONAL WEATHER ROUNDUP
NATIONAL WEATHER SERVICE BIRMINGHAM AL
200 PM CDT FRI JUL 11 2014

NOTE: "FAIR" INDICATES FEW OR NO CLOUDS BELOW 12,000 FEET
WITH NO SIGNIFICANT WEATHER AND/OR OBSTRUCTIONS TO VISIBILITY.

THE REMARK "TC" DENOTES TEMPERATURE IN DEGREES CELSIUS.

ALZ001>011-014-016>018-020-112000-
NORTH ALABAMA

CITY           SKY/WX    TMP DP  RH WIND       PRES   REMARKS
MUSCLE SHOALS  SUNNY     90  57  32 N3        30.16F
HUNTSVILLE     MOSUNNY   89  64  43 CALM      30.15F HX  90
DECATUR        SUNNY     89  64  43 SE3       30.16F HX  90
HALEYVILLE     FAIR      87  66  49 NE3       30.20F
GADSDEN        PTSUNNY   88  66  48 N6        30.13F HX  90
$$

ALZ012-013-022-023-030>036-040>044-112000-
WEST CENTRAL ALABAMA

CITY           SKY/WX    TMP DP  RH WIND       PRES   REMARKS
TUSCALOOSA     SUNNY     93  61  34 CALM      30.13F HX  93
$$

ALZ015-024>027-033>036-040>044-112000-
CENTRAL ALABAMA

CITY           SKY/WX    TMP DP  RH WIND       PRES   REMARKS
BIRMINGHAM     MOSUNNY   92  65  40 N12       30.15F HX  94
MONTGOMERY     PTSUNNY   91  69  48 W3        30.12F HX  96
SHELBY CO ARPT PTSUNNY   89  66  46 CALM      30.14F HX  91
MAXWELL AFB    PTSUNNY   88  72  59 NW2       30.11F HX  94
GREENVILLE     FAIR      91  66  43 CALM      30.12F HX  93
$$

ALZ019-021-028-029-037-038-045>048-112000-
EAST CENTRAL ALABAMA

CITY           SKY/WX    TMP DP  RH WIND       PRES   REMARKS
ANNISTON       PTSUNNY   87  69  54 VRB3      30.13F HX  91
ALEXANDER CITY MOSUNNY   91  71  52 NW6       30.14F HX  97
AUBURN         PTSUNNY   84  70  61 N3        30.16F
$$

ALZ051>064-112000-
SOUTHWEST ALABAMA

CITY           SKY/WX    TMP DP  RH WIND       PRES   REMARKS
MOBILE         PTSUNNY   87  73  62 CALM      30.12F HX  94
BROOKLEY FIELD TSTM      81  74  79 VRB3      30.12F
EVERGREEN      MOSUNNY   94  68  42 NE6       30.12F HX  98
$$

ALZ049-050-065>069-112000-
SOUTHEAST ALABAMA

CITY           SKY/WX    TMP DP  RH WIND       PRES   REMARKS
DOTHAN         MOSUNNY   87  71  58 SE8       30.15F THUNDER HX  93
OZARK          MOSUNNY   87  69  54 W2        30.11F HX  91
TROY           PTSUNNY   93  66  40 VRB5      30.12F HX  96
EUFAULA        FAIR      92  69  47 VRB5      30.10F HX  97
$$



USA.gov is the U.S. government's official web portal to all federal, state and local government web resources and services.